Location: Astroquest
(35.1187°N, 89.7105°W)
Time: 06:40:59
(UTC-06:00)

Amateur Radio Satellites - All Passes

Search period start: 24 November 2017 06:10
Search period end: 25 November 2017 06:10
Location: Astroquest, 35.1187°N, 89.7105°W

Satellite Date Start Highest point End Downlink Frequencies (MHz)
Time Altitude Azimuth
HO-68 24 Nov 06:13:52 06:20:05 31° 97° (E) 06:26:15 435.675
XW-2B 24 Nov 06:19:35 06:23:20 57° 285° (WNW) 06:27:06 145.730 - 145.750
NUDT-PHONESAT 24 Nov 06:19:40 06:23:24 87° 282° (WNW) 06:27:08 437.300
CUBEBUG 2 24 Nov 06:25:09 06:27:42 16° 94° (E) 06:30:15 437.445
CUTE 1.7 + AOD 2 24 Nov 06:29:03 06:32:57 34° 97° (E) 06:36:51 437.475
CUTE-I 24 Nov 06:30:38 06:36:01 79° 285° (WNW) 06:41:20 437.470
XW-2C 24 Nov 06:45:53 06:49:05 25° 288° (WNW) 06:52:15 145.795 - 145.815
FALCONSAT 3 24 Nov 06:46:04 06:48:25 16° 150° (SSE) 06:50:48 435.103
YUBILEINY 24 Nov 06:46:19 06:53:17 26° 289° (WNW) 07:00:20 435.215
AAUSAT CUBESAT 2 24 Nov 06:50:37 06:52:51 14° 93° (E) 06:55:04 437.432
XW-2A 24 Nov 06:50:46 06:52:19 13° 94° (E) 06:53:52 145.665 - 145.685
LilacSat-2 24 Nov 06:52:27 06:55:19 20° 289° (WNW) 06:58:10 437.200
SEEDS 24 Nov 06:52:49 06:56:47 38° 98° (E) 07:00:44 437.485
XW-2F 24 Nov 06:53:32 06:56:31 22° 289° (WNW) 06:59:31 145.980 - 146.000
STRAND 1 24 Nov 06:54:09 06:59:18 72° 258° (WSW) 07:04:27 437.568
SO-50 24 Nov 06:56:39 07:00:33 26° 248° (WSW) 07:04:28 436.795
ZACube-1 24 Nov 06:59:29 06:59:47 10° 92° (E) 07:00:05 437.345
UWE-3 24 Nov 07:13:47 07:17:32 33° 97° (E) 07:21:19 435.000/436.395/437.385
KAITUO 1B 24 Nov 07:16:03 07:18:20 16° 291° (WNW) 07:20:37 145.475/437.950
FO-29 24 Nov 07:16:36 07:22:57 48° 69° (ENE) 07:30:01 435.910
AO-73 24 Nov 07:45:10 07:48:58 34° 98° (E) 07:52:48 145.935
Oscar 11 24 Nov 07:57:44 08:01:37 32° 97° (E) 08:05:30 .
CUBEBUG 2 24 Nov 08:00:42 08:04:23 32° 288° (WNW) 08:08:04 437.445
HO-68 24 Nov 08:01:09 08:07:51 44° 292° (WNW) 08:14:31 435.675
UNISAT 6 24 Nov 08:04:32 08:07:36 18° 69° (ENE) 08:10:38 437.425
CUTE 1.7 + AOD 2 24 Nov 08:05:42 08:08:29 17° 291° (WNW) 08:11:17 437.475
TIGRISAT 24 Nov 08:07:57 08:10:59 18° 68° (ENE) 08:13:59 435.000
PCSat 24 Nov 08:12:41 08:17:39 36° 57° (ENE) 08:22:35 145.827
XW-2A 24 Nov 08:22:11 08:25:00 25° 287° (WNW) 08:27:50 145.665 - 145.685
FALCONSAT 3 24 Nov 08:23:31 08:27:06 56° 164° (SSE) 08:30:44 435.103
AAUSAT CUBESAT 2 24 Nov 08:24:31 08:28:24 38° 287° (WNW) 08:32:16 437.432
DELFI C3 24 Nov 08:25:12 08:26:04 11° 92° (E) 08:26:54 145.870
SEEDS 24 Nov 08:29:38 08:32:06 15° 292° (WNW) 08:34:34 437.485
ZACube-1 24 Nov 08:32:15 08:36:18 51° 285° (WNW) 08:40:23 437.345
Max Valier Satellite 24 Nov 08:46:30 08:48:08 12° 93° (E) 08:49:46 145.860
UWE-3 24 Nov 08:51:09 08:53:43 16° 291° (WNW) 08:56:17 435.000/436.395/437.385
FO-29 24 Nov 09:02:39 09:08:11 28° 268° (W) 09:14:17 435.910
AO-73 24 Nov 09:22:21 09:24:54 16° 292° (WNW) 09:27:28 145.935
PRISM 24 Nov 09:33:50 09:37:53 60° 75° (ENE) 09:41:59 437.425
BEESAT 3 24 Nov 09:34:27 09:35:48 11° 47° (NE) 09:37:10 437.485
Oscar 11 24 Nov 09:34:29 09:37:29 19° 291° (WNW) 09:40:30 .
UNISAT 6 24 Nov 09:39:49 09:44:00 36° 262° (W) 09:48:09 437.425
TIGRISAT 24 Nov 09:43:09 09:47:22 36° 262° (W) 09:51:30 435.000
AIST 2D 24 Nov 09:47:58 09:50:33 20° 71° (ENE) 09:53:08 435.315
PCSat 24 Nov 09:56:23 10:00:51 27° 253° (WSW) 10:05:17 145.827
DELFI C3 24 Nov 09:57:11 10:01:00 45° 285° (WNW) 10:04:46 145.870
FALCONSAT 3 24 Nov 10:02:29 10:06:10 83° 360° (N) 10:09:53 435.103
EO-88 24 Nov 10:08:25 10:12:03 67° 283° (WNW) 10:15:40 145.990 - 145.960
DUCHIFAT 1 24 Nov 10:10:44 10:11:52 11° 66° (ENE) 10:13:00 145.980
Max Valier Satellite 24 Nov 10:18:43 10:22:01 31° 286° (WNW) 10:25:18 145.860
EO-79 24 Nov 10:20:28 10:23:32 20° 69° (ENE) 10:26:35 145.935-145.965
NANOSAT C BR1 24 Nov 10:21:32 10:24:22 18° 68° (ENE) 10:27:11 145.865
LO-87 24 Nov 10:22:28 10:24:40 16° 94° (E) 10:26:52 145.935 - 145.965
POLYITAN 1 24 Nov 10:36:05 10:39:46 29° 72° (ENE) 10:43:27 437.675
BEESAT 2 24 Nov 10:53:02 10:56:14 22° 52° (NE) 10:59:23 435.950
QB50P2 24 Nov 10:59:07 11:03:18 65° 76° (ENE) 11:07:31 145.880/145.840
O/OREOS (USA 219) 24 Nov 11:09:12 11:09:49 10° 97° (E) 11:10:26 437.305
BEESAT 3 24 Nov 11:09:51 11:13:42 58° 244° (WSW) 11:17:29 437.485
ESTCUBE 1 24 Nov 11:17:53 11:22:23 62° 101° (E) 11:26:52 437.505/2401.250
AIST 2D 24 Nov 11:21:14 11:23:36 17° 265° (W) 11:25:59 435.315
FALCONSAT 3 24 Nov 11:41:36 11:45:16 66° 194° (SSW) 11:48:56 435.103
DUCHIFAT 1 24 Nov 11:42:53 11:47:01 54° 260° (W) 11:51:08 145.980
SPROUT 24 Nov 11:52:10 11:55:58 32° 98° (E) 11:59:45 437.525
LO-87 24 Nov 11:55:11 11:58:01 23° 288° (WNW) 12:00:49 145.935 - 145.965
EO-79 24 Nov 11:55:22 11:59:04 29° 263° (W) 12:02:45 145.935-145.965
NANOSAT C BR1 24 Nov 11:56:00 11:59:47 32° 262° (W) 12:03:35 145.865
AO-91 24 Nov 12:02:17 12:06:54 30° 70° (ENE) 12:11:32 145.960
Oscar 19 24 Nov 12:10:20 12:14:58 36° 71° (ENE) 12:19:38 437.125/150
AO-85 24 Nov 12:11:37 12:16:22 63° 60° (ENE) 12:21:27 145.980
POLYITAN 1 24 Nov 12:12:33 12:15:32 19° 265° (W) 12:18:31 437.675
BUGSAT 1 24 Nov 12:20:48 12:25:00 88° 259° (W) 12:29:10 437.445
NO-84 24 Nov 12:23:52 12:26:03 16° 121° (ESE) 12:28:21 435.350 FM
BEESAT 2 24 Nov 12:30:31 12:33:53 26° 248° (WSW) 12:37:11 435.950
JUGNU 24 Nov 12:35:30 12:38:05 13° 168° (SSE) 12:40:40 437.505
50 SAT 24 Nov 12:39:53 12:40:39 11° 94° (E) 12:41:26 437.505
O/OREOS (USA 219) 24 Nov 12:44:04 12:48:37 61° 292° (WNW) 12:53:10 437.305
ESTCUBE 1 24 Nov 12:57:16 12:58:36 11° 295° (WNW) 12:59:56 437.505/2401.250
VELOX 1 24 Nov 12:58:39 13:03:05 67° 285° (WNW) 13:07:28 145.980
AO-7 24 Nov 13:01:04 13:06:53 22° 56° (ENE) 13:12:42 .
Gurwin Techsat 1B 24 Nov 13:04:08 13:09:27 89° 80° (E) 13:14:48 435.225
M-CUBED/EXP-1 PRIME 24 Nov 13:07:45 13:10:35 22° 64° (ENE) 13:13:35 437.505
FALCONSAT 3 24 Nov 13:21:13 13:24:02 21° 207° (SSW) 13:26:50 435.103
SPROUT 24 Nov 13:28:44 13:31:34 18° 292° (WNW) 13:34:25 437.525
DX 1 24 Nov 13:32:22 13:36:41 58° 101° (E) 13:40:58 434.975-435.025
AO-91 24 Nov 13:38:27 13:43:10 31° 264° (W) 13:47:55 145.960
Oscar 19 24 Nov 13:50:26 13:54:20 22° 265° (W) 13:58:15 437.125/150
AO-85 24 Nov 13:53:56 13:56:23 14° 252° (WSW) 13:58:54 145.980
NO-84 24 Nov 13:59:42 14:03:00 38° 319° (NW) 14:06:36 435.350 FM
UKube-1 24 Nov 14:06:28 14:10:48 89° 98° (E) 14:15:07 .
50 SAT 24 Nov 14:10:01 14:12:45 26° 288° (WNW) 14:15:28 437.505
ITAMSAT 1 24 Nov 14:11:02 14:15:32 30° 69° (ENE) 14:20:02 435.822/435.867
JUGNU 24 Nov 14:22:33 14:26:20 18° 178° (S) 14:30:07 437.505
MOZHAYETS 4 24 Nov 14:40:15 14:44:26 35° 98° (E) 14:48:37
M-CUBED/EXP-1 PRIME 24 Nov 14:42:13 14:44:53 20° 261° (W) 14:47:43 437.505
AO-7 24 Nov 14:50:27 14:58:43 78° 254° (WSW) 15:07:04 .
BEESAT 24 Nov 14:51:12 14:55:29 33° 98° (E) 14:59:46 436.000
DOVE 4 24 Nov 14:57:34 15:00:00 13° 64° (ENE) 15:02:28 437.250
YUBILEINY 24 Nov 15:02:35 15:09:32 25° 70° (ENE) 15:16:25 435.215
ITUPSAT 1 24 Nov 15:03:17 15:07:50 44° 100° (E) 15:12:22 437.325
CUBESAT XI-V 24 Nov 15:03:24 15:05:40 13° 92° (E) 15:07:56 437.345
DX 1 24 Nov 15:11:04 15:12:18 11° 296° (WNW) 15:13:32 434.975-435.025
ITAMSAT 1 24 Nov 15:50:26 15:54:53 28° 263° (W) 15:59:22 435.822/435.867
KKS-1 24 Nov 16:06:29 16:08:19 12° 93° (E) 16:10:09 437.445
JUGNU 24 Nov 16:11:19 16:14:36 15° 188° (S) 16:17:53 437.505
CUTE-I 24 Nov 16:12:17 16:15:01 14° 63° (ENE) 16:17:47 437.470
SRMSAT 24 Nov 16:14:29 16:17:51 15° 172° (S) 16:21:12 437.500
MOZHAYETS 4 24 Nov 16:18:05 16:21:17 19° 292° (WNW) 16:24:30
BEESAT 24 Nov 16:29:26 16:33:00 22° 292° (WNW) 16:36:34 436.000
DOVE 4 24 Nov 16:31:57 16:36:58 67° 259° (W) 16:42:13 437.250
CUBESAT XI-V 24 Nov 16:38:43 16:43:16 51° 286° (WNW) 16:47:48 437.345
HO-68 24 Nov 16:41:07 16:45:28 17° 58° (ENE) 16:49:48 435.675
ITUPSAT 1 24 Nov 16:42:18 16:45:16 17° 294° (WNW) 16:48:14 437.325
XW-2D 24 Nov 16:42:48 16:45:54 25° 72° (ENE) 16:49:01 145.860 - 145.880
AO-7 24 Nov 16:49:56 16:52:31 12° 269° (W) 16:55:09 .
NUDT-PHONESAT 24 Nov 16:55:46 16:58:41 23° 72° (ENE) 17:01:38 437.300
XW-2B 24 Nov 16:57:22 17:00:49 37° 74° (ENE) 17:04:18 145.730 - 145.750
YUBILEINY 24 Nov 16:58:11 17:06:52 63° 268° (W) 17:15:29 435.215
RS-15 24 Nov 17:17:28 17:29:20 59° 111° (ESE) 17:41:13 29.354- 29.394
CUTE 1.7 + AOD 2 24 Nov 17:19:30 17:22:07 16° 68° (ENE) 17:24:45 437.475
CUBEBUG 2 24 Nov 17:21:52 17:22:52 11° 66° (ENE) 17:23:51 437.445
XW-2C 24 Nov 17:22:54 17:26:38 90° 329° (NNW) 17:30:23 145.795 - 145.815
LilacSat-2 24 Nov 17:29:52 17:33:34 66° 259° (WSW) 17:37:20 437.200
XW-2F 24 Nov 17:29:55 17:33:37 78° 257° (WSW) 17:37:21 145.980 - 146.000
KKS-1 24 Nov 17:40:48 17:45:06 49° 287° (WNW) 17:49:22 437.445
ISS 24 Nov 17:41:34 17:42:06 10° 126° (SE) 17:42:38 437.550
SEEDS 24 Nov 17:42:04 17:44:51 18° 69° (ENE) 17:47:39 437.485
CUTE-I 24 Nov 17:49:07 17:54:26 67° 258° (WSW) 17:59:48 437.470
KAITUO 1B 24 Nov 17:51:04 17:54:38 52° 260° (W) 17:58:15 145.475/437.950
STARS 24 Nov 17:53:40 17:58:05 86° 108° (ESE) 18:02:25 437.465
SRMSAT 24 Nov 18:02:27 18:06:16 18° 182° (S) 18:10:06 437.500
UWE-3 24 Nov 18:08:03 18:11:12 20° 70° (ENE) 18:14:19 435.000/436.395/437.385
XW-2D 24 Nov 18:17:39 18:20:02 16° 266° (W) 18:22:26 145.860 - 145.880
nSIGHT-1 24 Nov 18:18:15 18:21:15 37° 133° (SE) 18:24:14 .
HO-68 24 Nov 18:25:06 18:32:17 82° 255° (WSW) 18:39:32 435.675
NUDT-PHONESAT 24 Nov 18:30:04 18:32:28 17° 265° (W) 18:34:53 437.300
XW-2B 24 Nov 18:34:08 18:35:08 11° 268° (W) 18:36:07 145.730 - 145.750
AO-73 24 Nov 18:38:09 18:41:06 19° 69° (ENE) 18:44:02 145.935
XW-2A 24 Nov 18:49:15 18:52:27 49° 76° (ENE) 18:55:40 145.665 - 145.685
Oscar 11 24 Nov 18:50:13 18:53:00 17° 68° (ENE) 18:55:47 .
CUTE 1.7 + AOD 2 24 Nov 18:53:49 18:57:38 34° 263° (W) 19:01:28 437.475
CUBEBUG 2 24 Nov 18:54:24 18:58:56 63° 259° (W) 19:03:22 437.445
STRAND 1 24 Nov 19:07:59 19:12:57 50° 100° (E) 19:17:52 437.568
AAUSAT CUBESAT 2 24 Nov 19:10:30 19:14:36 86° 76° (ENE) 19:18:46 437.432
ISS 24 Nov 19:14:57 19:18:10 58° 320° (NW) 19:21:24 437.550
SEEDS 24 Nov 19:16:33 19:20:14 31° 263° (W) 19:23:59 437.485
ZACube-1 24 Nov 19:24:12 19:28:31 78° 77° (ENE) 19:32:45 437.345
SO-50 24 Nov 19:28:18 19:31:23 18° 110° (ESE) 19:34:28 436.795
RS-15 24 Nov 19:30:48 19:42:15 43° 312° (NW) 19:53:41 29.354- 29.394
UWE-3 24 Nov 19:43:30 19:47:26 31° 263° (W) 19:51:17 435.000/436.395/437.385
SRMSAT 24 Nov 19:52:06 19:54:41 13° 192° (SSW) 19:57:17 437.500
nSIGHT-1 24 Nov 19:55:07 19:57:33 19° 328° (NNW) 20:00:00 .
AO-73 24 Nov 20:13:19 20:17:06 30° 263° (W) 20:20:50 145.935
FO-29 24 Nov 20:14:27 20:22:05 59° 99° (E) 20:29:02 435.910
HO-68 24 Nov 20:19:02 20:20:52 11° 270° (W) 20:22:42 435.675
Oscar 11 24 Nov 20:24:55 20:28:49 34° 262° (W) 20:32:45 .
NO-84 24 Nov 20:34:38 20:38:30 33° 40° (NE) 20:42:21 435.350 FM
DELFI C3 24 Nov 20:38:26 20:42:20 59° 76° (ENE) 20:46:15 145.870
EO-88 24 Nov 20:42:49 20:45:55 27° 73° (ENE) 20:49:02 145.990 - 145.960
STRAND 1 24 Nov 20:48:29 20:51:41 17° 295° (WNW) 20:54:51 437.568
Max Valier Satellite 24 Nov 20:53:30 20:57:06 60° 76° (ENE) 21:00:42 145.860
SO-50 24 Nov 21:07:22 21:11:31 37° 305° (NW) 21:15:42 436.795
O/OREOS (USA 219) 24 Nov 21:19:57 21:22:06 13° 58° (ENE) 21:24:15 437.305
PRISM 24 Nov 21:21:05 21:21:44 10° 92° (E) 21:22:24 437.425
UNISAT 6 24 Nov 21:34:10 21:38:22 57° 100° (E) 21:42:33 437.425
TIGRISAT 24 Nov 21:37:22 21:41:33 56° 100° (E) 21:45:43 435.000
RS-15 24 Nov 21:52:50 21:59:28 16° 343° (NNW) 22:06:01 29.354- 29.394
FO-29 24 Nov 22:00:20 22:06:26 26° 297° (WNW) 22:12:13 435.910
NO-84 24 Nov 22:12:05 22:15:47 29° 235° (SW) 22:19:25 435.350 FM
ESTCUBE 1 24 Nov 22:14:08 22:18:15 37° 72° (ENE) 22:22:23 437.505/2401.250
EO-88 24 Nov 22:17:38 22:19:34 14° 266° (W) 22:21:29 145.990 - 145.960
LO-87 24 Nov 22:26:41 22:30:17 76° 77° (ENE) 22:33:53 145.935 - 145.965
SPROUT 24 Nov 22:42:59 22:45:46 17° 68° (ENE) 22:48:33 437.525
AIST 2D 24 Nov 22:47:48 22:51:07 37° 98° (E) 22:54:25 435.315
QB50P2 24 Nov 22:48:46 22:50:46 13° 93° (E) 22:52:44 145.880/145.840
PCSat 24 Nov 22:50:33 22:55:53 63° 113° (ESE) 23:01:15 145.827
PRISM 24 Nov 22:53:12 22:57:14 50° 286° (WNW) 23:01:13 437.425
O/OREOS (USA 219) 24 Nov 22:57:25 23:01:51 53° 254° (WSW) 23:06:13 437.305
UNISAT 6 24 Nov 23:13:49 23:14:32 10° 295° (WNW) 23:15:16 437.425
TIGRISAT 24 Nov 23:16:52 23:17:43 10° 295° (WNW) 23:18:33 435.000
DUCHIFAT 1 24 Nov 23:30:08 23:33:43 28° 97° (E) 23:37:17 145.980
EO-79 24 Nov 23:42:23 23:46:30 54° 100° (E) 23:50:35 145.935-145.965
NANOSAT C BR1 24 Nov 23:42:48 23:46:50 47° 100° (E) 23:50:51 145.865
VELOX 1 24 Nov 23:52:06 23:56:30 70° 75° (ENE) 00:00:57 145.980
ESTCUBE 1 24 Nov 23:52:18 23:55:08 17° 266° (W) 23:58:00 437.505/2401.250
POLYITAN 1 24 Nov 23:58:50 00:03:02 88° 103° (ESE) 00:07:13 437.675
BUGSAT 1 25 Nov 00:06:52 00:09:19 16° 94° (E) 00:11:44 437.445
RS-15 25 Nov 00:12:05 00:19:20 17° 22° (NNE) 00:26:22 29.354- 29.394
SPROUT 25 Nov 00:17:27 00:21:21 34° 262° (W) 00:25:16 437.525
QB50P2 25 Nov 00:22:44 00:26:41 41° 287° (WNW) 00:30:37 145.880/145.840
AIST 2D 25 Nov 00:23:18 00:23:52 10° 292° (WNW) 00:24:26 435.315
DX 1 25 Nov 00:24:39 00:28:34 33° 71° (ENE) 00:32:28 434.975-435.025
Oscar 19 25 Nov 00:26:02 00:29:16 17° 93° (E) 00:32:28 437.125/150
50 SAT 25 Nov 00:33:01 00:36:03 39° 74° (ENE) 00:39:06 437.505
PCSat 25 Nov 00:36:10 00:39:42 17° 310° (NW) 00:43:16 145.827
nSIGHT-1 25 Nov 00:48:20 00:50:09 14° 28° (NNE) 00:51:57 .
BEESAT 3 25 Nov 00:55:41 00:59:29 46° 115° (ESE) 01:03:19 437.485
UKube-1 25 Nov 00:57:22 01:01:30 48° 73° (ENE) 01:05:41 .
DUCHIFAT 1 25 Nov 01:06:10 01:09:09 19° 291° (WNW) 01:12:08 145.980
NANOSAT C BR1 25 Nov 01:20:27 01:22:05 12° 294° (WNW) 01:23:43 145.865
EO-79 25 Nov 01:20:46 01:21:43 11° 295° (WNW) 01:22:41 145.935-145.965
Gurwin Techsat 1B 25 Nov 01:23:46 01:28:52 45° 99° (E) 01:33:57 435.225
AO-91 25 Nov 01:32:11 01:36:30 83° 100° (E) 01:40:19 145.960
MOZHAYETS 4 25 Nov 01:39:17 01:42:54 24° 69° (ENE) 01:46:30
BUGSAT 1 25 Nov 01:41:10 01:44:42 31° 288° (WNW) 01:48:14 437.445
ISS 25 Nov 01:45:26 01:48:27 34° 37° (NE) 01:51:27 437.550
BEESAT 25 Nov 01:54:33 01:58:33 28° 69° (ENE) 02:02:34 436.000
DX 1 25 Nov 02:01:46 02:04:46 18° 265° (W) 02:07:45 434.975-435.025
Oscar 19 25 Nov 02:03:48 02:08:47 49° 287° (WNW) 02:13:45 437.125/150
ITUPSAT 1 25 Nov 02:06:49 02:11:10 36° 71° (ENE) 02:15:32 437.325
BEESAT 2 25 Nov 02:17:21 02:21:20 73° 299° (WNW) 02:25:23 435.950
M-CUBED/EXP-1 PRIME 25 Nov 02:21:46 02:25:57 33° 102° (ESE) 02:30:06 437.505
nSIGHT-1 25 Nov 02:23:30 02:26:40 65° 225° (SW) 02:29:48 .
AO-85 25 Nov 02:23:46 02:27:20 37° 114° (ESE) 02:31:01 145.980
RS-15 25 Nov 02:24:13 02:35:40 51° 52° (NE) 02:46:29 29.354- 29.394
ITAMSAT 1 25 Nov 02:28:41 02:30:58 13° 92° (E) 02:33:15 435.822/435.867
BEESAT 3 25 Nov 02:35:03 02:37:15 14° 311° (NW) 02:39:27 437.485
UKube-1 25 Nov 02:36:04 02:37:44 12° 267° (W) 02:39:25 .
AO-7 25 Nov 02:55:53 03:03:46 44° 101° (E) 03:11:37 .
Gurwin Techsat 1B 25 Nov 03:04:41 03:08:26 20° 294° (WNW) 03:12:10 435.225
MOZHAYETS 4 25 Nov 03:16:00 03:19:53 27° 263° (W) 03:23:47
ISS 25 Nov 03:22:25 03:24:43 18° 231° (SW) 03:27:00 437.550
BEESAT 25 Nov 03:32:17 03:36:13 26° 263° (W) 03:40:11 436.000
CUBESAT XI-V 25 Nov 03:38:15 03:42:50 77° 259° (WSW) 03:47:28 437.345
ITUPSAT 1 25 Nov 03:45:37 03:49:02 19° 265° (W) 03:52:28 437.325
M-CUBED/EXP-1 PRIME 25 Nov 03:56:26 04:00:04 23° 296° (WNW) 04:03:42 437.505
YUBILEINY 25 Nov 03:59:32 04:06:54 32° 85° (E) 04:14:17 435.215
AO-85 25 Nov 04:05:28 04:07:53 16° 311° (NW) 04:10:22 145.980
ITAMSAT 1 25 Nov 04:05:39 04:10:47 62° 286° (WNW) 04:15:53 435.822/435.867
DOVE 4 25 Nov 04:34:33 04:39:24 45° 98° (E) 04:43:56 437.250
KKS-1 25 Nov 04:34:58 04:39:27 82° 258° (WSW) 04:43:57 437.445
RS-15 25 Nov 04:37:11 04:47:47 43° 253° (WSW) 04:57:55 29.354- 29.394
STARS 25 Nov 04:46:40 04:50:55 49° 74° (ENE) 04:55:12 437.465
AO-7 25 Nov 04:48:50 04:56:18 38° 297° (WNW) 05:03:47 .
XW-2C 25 Nov 05:00:21 05:01:45 12° 93° (E) 05:03:10 145.795 - 145.815
XW-2F 25 Nov 05:06:25 05:08:14 13° 93° (E) 05:10:04 145.980 - 146.000
LilacSat-2 25 Nov 05:07:03 05:09:29 16° 94° (E) 05:11:55 437.200
KAITUO 1B 25 Nov 05:25:45 05:28:22 18° 95° (E) 05:30:58 145.475/437.950
SO-50 25 Nov 05:40:55 05:45:35 76° 61° (ENE) 05:50:18 436.795
XW-2D 25 Nov 05:51:24 05:55:11 60° 101° (E) 05:58:57 145.860 - 145.880
HO-68 25 Nov 05:57:34 06:03:01 23° 95° (E) 06:08:24 435.675
NUDT-PHONESAT 25 Nov 06:01:33 06:05:10 50° 100° (E) 06:08:48 437.300
